Location: ???????
(55.4362°N, 38.1183°E)
Time: 22:14:59
(UTC+00:00)

Cosmos-2242 - Visible Passes

Search period start: 21 October 2021 00:00
Search period end: 31 October 2021 00:00
Orbit: 591 x 616 km, 82.5° (Epoch: 21 October)

Date Brightness Start Highest point End Pass type
(mag) Time Alt. Az. Time Alt. Az. Time Alt. Az.
24 Oct 6.2 03:13:02 10° NE 03:13:21 10° NE 03:13:40 10° NE visible
25 Oct 5.8 03:23:51 10° NNE 03:26:11 14° NE 03:28:29 10° E visible
26 Oct 5.7 03:35:46 10° NNE 03:38:56 19° ENE 03:42:04 10° ESE visible
29 Oct 6.2 02:37:18 10° NE 02:38:13 11° NE 02:39:07 10° ENE visible
30 Oct 5.9 02:48:34 10° NNE 02:51:02 15° NE 02:53:27 10° E visible
